Theta_e
313 316 319 319 315 310 309 311 312 312 311 311 313 314 314 314 313 313 313 311 310 311 311 311 311 310 310 308 305 304 303 302 301 301 300 300 299 299 299 298 297 296 296 295 294 294 293 293 293 292 292 293 293 293 293 293 294 294 294 294 294 294 294 294 294 294 294 295 295 296 296 296 296 296 296 297 298 298 298 298 298 297 296 297 299 301
315 318 318 314 310 308 309 310 311 310 310 311 312 314 314 315 314 313 313 311 310 311 310 311 310 309 310 309 305 303 303 301 301 300 300 300 299 298 298 297 296 296 295 295 294 294 293 292 292 292 292 292 292 292 293 293 293 293 293 294 294 294 294 294 294 294 294 294 295 295 296 296 296 296 295 297 298 298 298 298 299 299 298 296 297 299
317 318 314 309 310 310 310 310 310 310 311 312 313 314 315 316 315 314 313 312 311 310 309 310 309 309 310 308 304 303 302 301 300 300 300 299 299 298 297 297 296 295 295 294 294 293 293 292 292 292 292 292 292 292 293 293 293 293 293 293 294 293 294 293 293 294 294 294 294 295 296 296 295 295 296 296 297 298 298 298 299 300 300 298 297 297
316 316 311 310 311 310 310 311 311 311 312 314 314 314 315 316 316 314 313 311 310 310 310 310 310 309 309 307 304 303 302 301 300 300 299 299 298 298 297 296 296 295 295 294 294 293 293 292 292 292 292 292 292 292 293 293 293 293 293 294 294 293 293 293 293 293 293 293 294 294 295 295 296 296 296 296 296 297 298 298 298 299 300 300 298 297
315 313 311 311 312 311 312 313 314 313 313 315 316 315 315 315 313 312 312 310 309 310 311 310 308 308 309 306 304 303 301 301 300 300 299 298 298 297 296 296 295 295 294 294 294 293 293 292 292 292 292 292 292 292 293 293 293 293 293 293 293 293 293 293 293 293 293 293 293 294 294 295 295 296 296 296 296 296 297 298 298 298 299 299 298 296
313 311 311 313 313 314 315 315 315 316 314 313 315 315 313 311 310 312 312 311 309 310 311 309 307 309 310 307 304 302 302 300 299 299 298 298 297 296 296 296 295 295 294 294 294 293 293 292 292 292 292 292 292 292 293 293 293 293 293 293 293 293 293 293 292 292 292 293 293 293 294 294 295 295 296 296 296 296 296 297 298 298 299 299 298 297
311 310 312 314 314 315 317 316 315 316 314 313 314 313 309 309 311 312 312 311 310 310 309 308 307 307 309 309 305 303 302 301 299 299 298 298 297 296 296 295 295 294 294 294 293 293 293 292 292 292 292 292 292 292 292 292 292 292 293 293 292 292 292 292 292 292 292 292 293 293 293 294 294 295 295 295 296 296 296 297 297 298 298 298 298 297
310 311 313 314 314 315 315 314 315 314 313 313 312 310 308 309 310 311 310 310 310 310 309 309 309 306 306 308 306 303 302 301 299 299 298 298 297 296 296 295 294 294 294 293 293 293 292 292 292 292 292 292 292 292 292 292 292 292 292 292 292 292 292 292 292 291 292 292 293 293 293 293 293 294 294 295 295 296 296 297 297 298 298 298 297 296
312 315 315 315 314 314 313 313 313 313 313 311 308 307 307 308 309 309 309 309 309 309 308 308 309 308 308 308 306 304 302 300 299 299 298 297 296 296 295 295 294 294 293 293 293 293 292 292 292 292 292 292 292 292 292 292 292 292 292 291 291 291 291 291 291 291 292 292 292 292 291 291 291 292 294 294 295 295 295 296 296 297 298 298 298 297
311 312 312 312 313 312 311 311 310 312 312 309 307 309 309 309 309 309 310 310 309 307 306 307 309 308 309 308 305 304 303 300 299 298 297 297 296 295 295 294 294 293 293 293 293 292 292 292 292 292 292 292 292 292 291 291 291 291 291 291 290 290 291 290 290 290 290 290 290 289 288 288 288 289 291 292 294 294 295 295 295 296 297 298 298 298
309 307 307 309 311 310 309 308 309 309 309 308 309 311 310 310 310 309 311 310 307 308 308 307 308 308 308 309 306 304 303 301 300 298 297 296 295 295 294 294 293 293 293 293 292 292 292 292 292 292 292 292 292 291 291 291 290 290 290 290 289 289 289 289 289 288 288 287 287 287 286 286 286 287 288 290 292 294 294 294 295 296 297 298 298 298
310 309 310 309 308 308 309 308 308 307 306 308 310 310 310 311 310 308 312 311 308 310 308 304 306 306 307 308 304 301 300 300 299 297 297 296 295 294 294 294 293 293 293 292 292 292 292 292 292 292 292 291 291 291 290 290 289 289 289 289 288 288 288 288 288 287 286 286 286 285 285 285 285 285 286 287 290 293 294 294 294 295 296 297 297 298
314 314 313 310 307 308 311 311 310 309 309 309 309 308 309 311 310 309 313 313 311 309 304 302 304 303 303 305 303 300 298 298 297 297 296 295 294 294 294 293 293 292 292 292 292 292 291 291 291 291 291 291 291 290 290 289 289 289 288 288 288 287 286 286 286 286 285 285 285 285 285 285 284 284 285 286 288 290 293 294 294 295 296 297 297 298
317 315 312 311 308 308 311 312 312 312 310 309 309 308 309 310 309 309 309 310 311 309 304 302 303 302 303 304 302 299 297 297 296 296 295 294 294 294 293 293 293 292 292 291 291 291 291 291 291 291 291 290 290 290 289 289 288 288 287 287 287 287 286 285 285 285 284 284 284 284 284 284 283 284 284 285 286 288 291 293 294 295 297 297 298 298
316 317 314 312 309 309 311 310 309 308 307 307 307 307 309 310 309 308 308 308 309 308 304 303 303 304 304 303 300 298 297 297 296 295 295 294 294 293 293 293 292 292 291 291 291 291 291 291 290 290 290 290 290 289 289 288 288 287 287 286 286 286 285 285 284 284 283 283 283 283 282 282 283 284 285 285 286 287 288 290 292 293 296 297 298 298
315 318 313 307 305 306 307 306 305 306 308 307 306 307 308 308 308 308 306 305 306 304 302 303 304 305 303 300 299 298 297 297 296 295 295 294 294 293 293 292 292 291 291 291 291 290 290 290 290 290 290 290 290 289 288 288 287 287 286 286 285 285 284 284 284 284 283 282 281 281 281 281 282 283 284 285 285 285 286 288 289 291 294 296 297 298
315 317 311 305 304 302 301 302 303 306 308 306 305 308 306 303 303 305 305 304 304 303 302 303 304 304 303 301 299 298 298 297 296 295 294 294 294 293 292 292 291 291 291 291 290 290 290 290 290 290 290 290 289 288 288 287 287 286 286 285 285 284 284 283 283 283 282 281 280 280 280 279 280 280 281 282 283 284 286 287 289 291 293 295 297 298
315 314 310 307 307 302 298 300 301 302 304 305 306 305 303 302 301 302 303 303 302 302 302 304 304 303 303 303 299 298 298 298 296 295 294 294 294 293 292 292 291 291 291 290 290 290 290 290 290 290 289 289 289 288 287 287 286 286 285 285 284 284 283 283 283 282 281 280 279 279 279 278 278 279 279 280 281 283 285 287 289 292 293 293 295 297
314 315 311 306 306 302 299 302 303 301 300 302 303 302 303 305 303 302 303 303 302 302 303 305 304 303 304 303 300 298 298 297 296 295 294 294 293 293 292 291 291 291 291 290 290 290 290 290 290 289 289 289 288 288 287 286 286 285 285 284 283 283 283 282 282 281 280 279 278 278 278 277 277 278 279 279 279 280 283 285 288 290 291 292 294 295
312 314 312 305 303 303 301 303 305 303 300 299 300 300 302 303 303 303 303 302 303 302 303 304 303 303 304 303 301 299 297 296 295 295 295 294 293 292 292 291 291 291 290 290 290 290 290 290 289 289 289 288 288 287 287 286 285 285 284 284 283 283 282 282 281 280 279 278 277 276 276 276 276 277 278 278 278 279 281 283 285 287 289 291 293 294
310 310 310 305 301 302 303 303 304 305 302 300 299 299 300 300 301 302 301 301 302 300 301 302 301 302 303 301 299 298 296 296 295 295 295 294 293 292 292 291 291 291 291 290 290 290 290 289 289 289 288 288 287 287 286 286 285 284 284 284 283 283 282 282 281 280 279 277 276 276 275 275 275 276 277 278 278 278 279 281 282 284 286 288 292 293
309 308 308 305 302 302 304 302 302 303 303 301 300 300 300 300 301 301 300 301 301 299 300 300 299 302 302 299 298 297 296 296 295 294 294 293 292 292 292 291 291 291 291 290 290 290 289 289 289 288 288 287 287 286 286 286 285 284 284 283 283 282 282 281 281 279 277 276 275 275 275 275 275 275 275 276 277 277 278 279 281 282 284 286 289 292
305 307 307 306 304 304 302 300 299 299 300 301 301 301 301 300 301 301 299 301 302 299 299 299 299 300 301 300 299 297 296 296 295 295 294 293 292 292 291 291 291 291 290 290 290 289 289 289 289 288 287 287 286 286 286 285 285 284 283 282 282 282 282 281 280 279 277 275 275 274 274 274 274 274 275 275 276 277 278 278 279 280 282 283 286 289
303 307 307 306 305 302 298 297 297 297 298 299 299 300 299 298 300 300 299 301 302 300 299 299 299 299 300 300 298 297 296 296 295 294 293 293 292 292 291 291 291 290 290 290 289 289 289 289 288 287 287 286 286 286 285 285 284 283 283 282 281 282 281 280 279 278 276 275 274 274 274 274 274 274 275 275 275 276 277 278 278 279 280 282 284 287
306 307 307 307 307 305 301 298 298 298 297 297 298 299 299 299 299 300 299 299 300 299 298 298 298 299 300 300 298 297 296 296 295 294 293 292 292 291 291 291 291 290 290 290 289 289 289 288 287 287 286 286 285 285 284 284 283 283 282 281 281 281 281 280 279 277 276 275 274 274 273 273 273 274 274 274 275 275 276 277 277 277 279 281 283 286
307 306 306 308 310 312 311 306 302 300 297 296 297 298 299 299 298 298 298 299 298 298 298 298 298 298 299 299 298 297 297 297 295 294 293 292 292 291 291 291 291 290 290 289 289 288 288 287 287 286 286 286 285 284 284 283 282 282 281 281 280 280 280 279 278 277 275 275 274 273 273 273 273 273 273 273 274 274 275 276 276 276 278 281 283 285
305 303 303 306 308 310 311 306 302 300 297 297 297 297 297 299 299 298 298 298 298 298 298 298 298 298 298 298 298 297 297 297 295 293 292 292 292 291 291 291 290 290 290 289 289 288 288 287 286 286 285 285 284 284 283 282 281 281 280 280 280 280 279 279 278 276 275 275 274 273 273 273 273 272 272 273 273 274 274 274 275 275 276 279 282 284
303 302 302 304 304 305 306 302 300 299 297 296 297 297 296 298 300 300 298 297 297 297 297 297 298 298 298 298 298 297 297 296 294 292 292 292 291 291 291 291 290 290 289 289 288 288 287 286 286 285 285 284 283 283 282 281 280 280 279 279 279 279 279 278 277 276 275 275 274 273 272 272 272 272 272 272 272 272 272 273 273 274 275 276 279 283
301 302 302 302 302 302 302 301 300 299 297 296 297 297 296 297 298 299 298 297 297 297 297 296 297 298 297 297 297 296 296 295 293 292 292 292 291 291 291 290 290 290 289 289 288 287 286 286 285 284 284 283 282 282 281 280 280 279 279 279 278 278 278 277 276 276 276 275 273 273 272 272 271 271 271 271 271 271 271 272 272 273 274 276 278 281
299 301 301 301 301 301 300 300 300 299 297 297 296 296 296 296 296 297 297 297 297 296 296 296 296 296 297 297 296 296 296 294 292 292 292 291 291 291 291 290 290 290 289 289 288 286 286 285 284 284 283 282 281 281 280 279 279 279 279 279 278 278 278 276 274 274 275 274 273 272 272 271 271 271 271 271 270 270 270 271 271 272 274 276 277 280
299 301 300 299 300 300 299 299 299 298 297 297 296 296 296 295 295 296 296 296 297 297 296 296 296 296 296 296 296 296 295 293 292 292 292 291 291 291 290 290 290 290 289 288 287 286 285 284 284 283 282 281 280 280 279 278 279 279 280 279 278 277 277 276 274 274 274 274 273 272 271 271 270 270 270 270 270 270 270 270 271 272 274 275 277 278
298 299 299 299 300 301 299 298 298 297 297 296 296 296 296 296 296 296 295 296 296 296 296 296 296 296 296 296 296 295 294 293 292 292 291 291 291 291 290 290 290 289 288 287 286 285 284 284 284 282 281 280 279 279 278 278 278 279 280 279 278 278 277 275 274 273 272 272 271 271 270 270 270 269 269 269 269 269 269 269 270 271 273 275 277 278
298 298 299 299 301 300 298 296 296 295 296 297 297 296 296 296 296 296 296 296 296 296 296 296 296 296 296 297 296 295 293 293 292 291 291 291 291 290 290 290 290 289 287 286 285 284 283 283 283 281 280 279 278 278 277 276 276 277 278 278 278 278 276 275 274 273 272 271 270 270 270 269 269 269 269 268 269 269 269 269 269 270 271 274 276 278
297 298 298 299 300 298 295 294 295 296 299 300 299 298 297 296 295 296 296 296 296 296 296 296 296 296 296 296 296 294 293 292 291 291 291 291 290 290 290 290 289 287 286 285 284 283 282 282 281 281 279 278 277 277 276 276 276 278 279 279 279 279 278 277 275 272 271 271 270 270 269 269 268 268 268 268 269 269 268 269 269 270 270 273 275 278
297 298 298 299 299 297 295 295 297 300 300 297 296 296 296 296 296 296 296 296 296 296 296 296 296 296 296 295 294 293 292 292 291 291 291 290 290 290 289 289 287 285 285 284 283 282 282 281 281 280 279 278 277 276 276 276 277 279 281 282 282 281 279 276 273 272 272 271 270 269 268 268 267 267 267 269 270 270 269 269 269 270 271 272 275 277
298 297 298 298 298 297 296 297 300 301 298 295 294 294 294 295 295 295 295 296 296 295 296 296 295 296 295 294 293 292 291 291 291 291 291 290 290 289 288 287 286 285 284 283 282 282 281 280 280 279 278 277 277 276 276 277 278 280 282 283 282 281 279 277 276 275 272 270 269 269 269 269 268 268 267 268 269 270 271 270 270 271 272 273 274 277
297 297 297 297 298 297 297 297 299 299 298 297 296 294 294 294 294 295 295 295 295 294 295 295 295 295 294 293 292 292 291 291 291 291 290 290 289 289 288 287 286 284 283 283 282 281 280 280 279 278 277 277 277 276 276 277 278 279 281 282 282 281 280 278 277 274 272 272 273 272 271 270 269 269 268 269 269 271 271 271 271 272 272 273 275 277
297 297 297 298 298 297 296 297 298 298 299 299 297 297 295 294 294 295 295 294 295 295 294 294 294 294 294 292 291 291 291 292 292 291 289 289 289 288 287 286 285 284 284 282 281 280 280 280 279 278 277 277 277 276 276 276 277 279 280 281 280 280 279 278 276 274 274 275 274 273 270 268 268 268 268 269 271 272 273 273 273 273 273 273 275 277
296 297 297 297 298 297 296 297 298 298 299 298 296 295 295 294 294 294 294 294 295 294 293 294 294 293 293 292 291 292 292 292 292 291 289 289 289 288 287 285 284 284 283 282 280 279 279 280 279 278 277 277 276 276 276 276 277 278 279 279 280 280 280 279 277 275 274 274 274 273 271 268 268 268 267 269 272 273 273 274 274 275 274 274 276 278
296 296 296 296 297 297 297 297 297 298 298 296 294 293 293 293 294 295 296 297 295 293 293 293 293 292 292 291 291 292 293 292 291 290 290 290 289 287 285 284 283 283 282 281 281 280 280 279 278 278 277 276 276 276 275 276 277 278 278 279 279 279 279 279 278 276 276 276 275 274 272 270 269 269 269 271 273 274 274 275 276 276 276 276 278 280
295 296 296 295 296 296 297 297 297 297 297 294 292 292 292 293 294 294 296 297 294 292 293 293 292 292 291 291 291 292 292 291 290 290 290 289 288 286 285 284 283 283 282 282 281 281 281 280 278 277 276 275 275 275 275 275 276 277 278 278 278 278 278 279 279 277 277 276 276 275 273 271 270 269 270 272 274 274 275 276 277 277 277 278 280 281
294 295 295 295 295 295 296 297 296 297 297 294 292 292 293 294 295 295 295 295 293 292 293 293 292 292 291 291 291 291 291 290 290 290 289 288 286 285 284 284 283 283 283 282 282 281 281 281 280 279 277 276 275 275 275 275 276 276 277 277 278 278 279 279 279 278 278 277 276 276 274 271 270 269 270 272 273 274 275 277 278 278 279 279 281 282
295 295 294 295 295 294 295 296 295 297 297 294 292 293 293 295 296 295 293 293 293 293 292 292 292 292 291 291 291 291 290 290 289 289 288 286 285 285 284 284 283 283 283 283 282 281 280 281 280 279 278 276 275 275 274 275 276 276 276 277 278 278 279 280 280 279 279 277 277 277 275 271 270 269 269 270 273 273 274 277 279 280 280 281 282 283
296 296 295 295 295 294 295 295 296 296 295 293 293 294 294 294 294 294 293 293 292 292 292 292 292 292 291 291 291 290 290 289 288 288 287 285 285 284 284 284 283 283 283 282 281 280 280 280 281 280 278 276 275 274 274 274 275 276 276 277 278 278 279 280 280 279 279 278 277 278 277 272 269 269 269 269 272 274 275 277 280 282 282 283 284 285
298 297 297 297 295 295 296 296 296 296 294 293 294 294 294 294 294 294 294 293 293 292 292 292 292 292 291 291 290 289 289 288 288 287 286 285 285 284 284 283 283 282 282 281 281 280 280 280 280 280 279 277 275 274 274 274 274 275 276 277 278 278 279 280 280 279 279 278 277 278 277 272 269 268 268 268 270 274 276 277 279 281 282 283 284 286
298 297 297 297 296 296 297 296 295 295 294 293 294 294 295 295 295 294 294 294 293 293 292 292 292 291 291 290 289 289 289 289 288 287 286 285 285 284 284 283 282 282 281 281 280 280 280 280 280 280 279 278 276 274 274 273 273 274 275 276 277 278 278 279 279 279 279 278 277 278 277 272 269 268 268 267 269 272 275 277 278 279 280 282 283 285
297 296 297 297 297 297 298 297 295 295 294 294 294 294 294 294 294 294 294 294 293 293 292 292 291 291 290 290 290 289 289 289 288 287 286 285 284 284 283 283 282 281 280 280 280 279 279 279 279 279 279 278 276 275 274 273 273 274 275 276 277 278 278 279 279 279 278 277 278 278 276 272 269 268 267 268 269 271 274 276 277 277 278 279 281 284
298 296 296 297 297 298 298 297 295 295 295 294 294 294 294 294 294 294 293 293 292 292 292 291 291 291 290 290 289 289 289 288 287 286 285 284 284 284 283 282 281 280 279 279 279 279 279 278 278 278 277 276 275 275 274 273 273 274 275 276 277 277 278 279 279 279 278 277 278 278 276 272 269 267 266 267 268 270 273 275 275 276 276 277 280 282
297 297 296 297 297 297 297 297 295 295 295 295 294 295 294 294 294 293 293 292 292 291 291 291 291 290 290 290 289 289 289 288 286 286 285 284 283 283 282 281 280 279 279 279 278 278 278 278 278 277 276 275 274 274 274 273 273 274 274 275 276 277 277 279 279 279 278 277 278 278 276 272 270 267 265 265 267 269 272 273 274 274 276 279 280 280
297 297 297 297 297 297 297 297 296 296 296 295 294 295 295 295 294 293 292 292 291 291 291 291 290 290 289 289 289 289 288 287 286 285 284 283 283 282 281 280 280 279 279 278 278 278 277 277 277 277 276 275 273 273 273 273 273 274 274 275 276 276 277 278 278 279 278 277 278 278 276 272 270 267 264 264 266 268 272 276 277 276 275 278 281 281
298 297 297 297 298 298 297 297 297 297 296 296 295 295 295 294 294 293 293 292 292 292 291 291 291 290 289 289 289 288 287 286 286 285 284 283 283 282 280 280 279 279 278 278 278 278 277 277 277 276 275 274 273 272 273 273 273 273 274 274 275 276 276 276 277 277 278 277 277 277 274 271 268 266 264 264 265 266 269 275 280 281 279 278 280 282
Wind_Speed
1 3 4 1 2 3 4 2 2 3 4 3 4 4 6 6 6 8 4 3 4 1 3 5 7 11 8 6 11 15 15 14 14 12 11 8 7 6 6 6 7 6 8 12 12 18 25 26 28 31 33 34 33 32 32 31 30 32 35 36 38 39 39 39 40 42 43 43 42 42 43 44 44 45 47 47 45 43 45 45 42 38 38 39 38 38
1 2 2 3 3 2 3 1 2 3 4 4 5 5 6 6 5 5 3 3 4 2 3 6 9 13 10 5 12 15 12 11 13 12 11 9 8 6 6 4 5 7 9 12 13 20 26 28 33 36 36 35 34 35 33 31 32 34 35 36 38 40 41 40 40 41 43 43 43 43 44 45 47 48 47 46 45 45 45 45 42 39 40 42 42 41
2 2 2 2 1 0 0 3 3 4 5 5 5 5 6 4 3 4 1 2 3 2 4 8 8 10 8 5 12 12 10 10 12 12 10 9 8 6 5 4 6 8 11 13 15 21 27 31 35 37 37 36 35 36 34 33 34 35 36 37 38 40 41 41 41 41 42 44 44 44 44 45 47 48 46 45 46 45 43 43 43 41 42 45 45 43
4 2 2 1 1 1 2 4 4 5 5 5 5 5 5 1 3 2 2 4 7 6 7 8 6 7 4 6 9 10 12 13 12 11 10 8 7 6 4 4 7 10 13 15 17 21 27 30 33 37 38 38 37 37 36 36 37 37 38 38 39 42 43 42 42 42 44 46 46 46 45 45 45 46 45 44 45 44 43 42 42 43 44 46 46 44
7 3 1 1 2 1 2 4 4 3 3 4 4 3 3 1 1 3 5 7 8 7 6 5 6 6 5 9 6 8 12 12 13 14 12 10 7 5 4 5 8 11 14 15 16 21 27 29 33 36 36 37 37 37 37 37 38 39 40 40 43 45 44 42 43 45 46 47 47 47 47 46 46 46 45 43 43 44 44 43 43 43 46 47 48 45
6 1 2 1 1 1 2 4 3 2 2 4 1 1 1 1 3 5 6 6 5 4 2 2 5 5 6 10 6 6 8 8 12 14 12 10 7 4 4 7 9 11 13 13 15 21 26 30 35 36 35 36 37 36 36 36 38 41 42 43 46 47 45 44 46 48 47 45 46 46 47 47 47 48 48 44 43 45 45 45 44 44 46 47 47 45
3 2 2 1 1 1 3 5 2 2 1 3 2 1 1 2 5 6 6 4 2 5 3 2 3 5 2 7 8 8 7 8 10 9 10 10 6 5 6 6 8 11 12 13 15 20 26 32 35 36 35 35 37 37 36 37 40 42 41 43 47 48 46 47 48 48 46 45 45 45 46 47 48 50 51 48 45 45 46 46 45 45 46 46 45 44
3 3 2 2 2 2 4 3 1 2 1 2 4 2 1 3 6 7 6 4 4 6 5 4 5 6 6 5 9 12 9 8 8 6 8 9 6 5 5 6 9 11 12 14 17 23 28 31 33 34 35 34 36 36 37 41 43 42 42 45 48 47 46 48 51 50 46 42 41 42 44 46 48 49 51 50 47 46 46 45 46 45 45 45 46 46
3 3 4 3 3 3 3 2 2 2 1 2 2 3 3 5 8 7 6 6 5 5 5 5 5 5 6 2 7 11 10 9 9 8 7 8 6 5 5 7 10 12 12 15 20 25 29 30 32 34 33 33 34 35 39 42 43 43 45 47 48 47 47 49 50 47 42 40 43 47 51 53 53 51 50 50 49 47 46 46 47 45 44 46 46 46
1 3 3 3 3 4 2 3 3 2 2 1 2 4 5 6 8 7 6 5 5 5 7 6 6 5 5 2 6 7 7 8 9 7 7 8 6 5 6 8 11 12 14 18 22 26 28 29 32 33 33 34 34 36 41 42 43 45 46 47 48 46 47 49 48 47 48 50 53 55 56 55 53 51 50 49 49 48 46 46 47 46 44 44 44 45
2 3 1 2 3 2 3 3 3 4 2 3 4 4 5 6 6 5 6 4 3 5 5 5 4 5 4 3 6 5 4 7 8 7 7 7 5 5 7 9 11 14 17 20 23 26 28 30 31 32 33 34 35 38 41 42 43 44 45 47 47 44 45 49 51 52 53 53 51 51 51 49 49 51 50 48 47 46 45 46 46 45 44 43 43 45
2 3 2 2 2 3 4 0 4 5 1 2 1 3 4 5 4 3 1 1 1 5 2 4 5 2 5 3 3 4 4 8 8 7 6 5 4 6 9 12 13 16 19 22 25 27 29 30 32 32 34 35 37 39 41 42 43 44 46 47 45 45 49 52 54 54 51 48 48 49 48 46 47 50 49 47 45 43 42 44 45 45 44 43 43 43
3 4 2 3 1 4 4 1 1 2 1 2 2 3 3 4 3 2 1 0 3 5 3 5 6 2 7 6 4 8 7 8 9 9 8 6 6 8 11 13 14 17 20 22 25 27 29 31 32 34 36 38 39 41 42 42 44 45 46 46 47 50 53 53 54 55 51 48 48 46 44 43 47 51 52 48 45 41 38 38 41 42 42 42 41 40
2 2 2 3 0 5 6 2 2 1 1 4 3 1 3 1 3 4 2 3 4 4 4 4 3 4 6 6 4 9 9 11 14 13 10 8 8 9 9 11 14 17 19 22 24 26 29 30 33 35 37 39 40 40 41 43 46 47 46 47 51 54 54 53 54 55 52 48 47 44 43 47 50 51 51 46 42 42 39 36 37 39 40 40 40 40
3 4 2 3 2 5 5 2 3 2 1 4 3 4 3 2 3 5 2 2 4 5 5 1 2 4 4 2 4 12 13 15 17 13 10 8 8 8 9 12 15 17 19 22 24 27 29 30 33 35 37 38 38 40 41 43 46 46 46 50 53 54 55 54 54 55 52 50 49 48 48 48 44 41 41 39 37 38 40 40 38 39 40 40 41 41
4 5 2 0 1 4 1 1 3 2 0 2 2 3 1 3 4 4 1 2 2 6 6 2 2 5 2 1 6 12 12 15 15 11 9 8 8 10 10 12 15 17 20 22 24 27 30 32 33 35 37 37 38 40 42 43 46 46 48 52 53 53 54 53 55 57 55 52 52 50 48 45 39 37 38 39 37 34 35 38 40 40 40 41 40 39
3 4 1 1 1 2 1 2 1 0 1 0 1 1 3 2 2 1 3 0 2 5 6 3 3 4 2 2 5 9 8 9 10 9 9 7 9 9 8 10 14 17 20 22 24 28 31 32 33 36 36 36 39 41 42 44 46 45 48 50 50 51 54 54 56 58 56 52 50 48 45 42 41 42 42 42 42 39 35 34 36 37 35 36 37 37
1 3 2 1 1 1 2 2 2 2 2 2 2 3 1 1 2 1 2 2 1 6 6 4 5 6 3 3 4 8 7 6 7 6 6 6 7 5 6 10 15 18 20 22 25 29 31 31 34 36 35 36 39 40 41 42 44 45 47 45 45 49 52 53 55 56 54 50 48 47 44 40 42 43 41 41 42 42 39 35 33 31 28 29 32 35
2 2 3 0 1 1 2 2 2 2 2 2 2 1 2 1 1 2 1 1 3 7 6 4 7 6 5 4 6 8 7 5 4 4 4 4 5 5 8 13 17 19 20 23 27 30 30 32 34 35 35 37 39 40 41 41 42 46 46 42 44 50 52 52 53 54 54 52 50 49 44 40 40 40 39 40 40 39 39 38 37 34 29 26 25 29
2 2 3 1 2 0 2 0 3 2 1 2 1 2 1 2 3 3 2 2 4 6 6 8 8 4 4 4 8 8 6 6 3 3 3 2 4 6 10 14 18 20 22 25 28 31 32 33 34 34 36 40 41 41 41 41 44 47 47 46 50 55 57 56 55 55 56 54 51 48 42 38 39 39 37 39 39 38 37 37 39 40 38 32 25 23
2 3 4 1 2 1 2 3 4 4 3 3 2 3 2 2 2 2 2 2 4 6 5 8 9 4 2 1 6 7 6 7 5 2 2 1 4 7 10 14 18 21 23 26 29 32 34 35 35 35 39 42 42 43 43 43 47 49 49 51 53 57 59 59 57 58 59 54 49 46 41 38 41 41 36 36 37 38 38 36 36 39 41 40 32 24
2 3 4 2 2 3 3 2 2 3 4 4 5 6 6 5 4 2 5 3 3 5 4 6 11 6 3 1 4 6 6 6 4 3 2 3 6 7 10 14 18 20 23 28 31 33 34 34 35 39 44 45 44 45 46 46 49 50 50 52 55 57 59 59 58 59 58 53 47 45 42 39 41 41 37 37 37 36 38 36 35 37 40 42 38 31
1 1 2 4 4 3 2 0 1 1 2 3 4 4 5 6 5 5 7 4 2 4 4 5 10 6 2 3 5 6 6 6 3 2 4 6 7 7 11 14 17 21 25 30 32 34 34 33 37 42 45 45 45 46 47 48 50 50 50 52 56 58 58 58 60 61 58 52 46 43 42 40 40 39 36 36 36 35 35 36 37 37 38 41 41 39
2 2 1 4 4 2 2 2 1 0 0 2 4 4 4 5 6 5 6 2 1 5 5 3 8 7 1 3 6 7 10 9 5 6 8 7 6 8 12 15 18 22 28 31 33 34 34 35 39 43 44 45 46 46 47 49 50 51 52 54 57 59 59 58 59 60 58 52 47 45 43 40 38 37 36 34 34 34 34 36 38 38 38 40 43 43
4 1 2 1 5 4 3 2 2 2 2 3 4 4 5 5 3 2 2 1 3 10 9 6 9 7 2 3 6 8 9 7 4 8 9 6 6 9 13 16 19 24 29 31 33 34 35 37 41 44 45 45 46 47 48 49 50 53 55 55 55 57 59 60 59 58 57 53 49 47 44 41 39 38 37 36 35 34 33 34 37 39 39 39 42 47
5 1 4 3 7 9 6 4 3 3 3 3 3 6 7 8 8 5 2 3 8 12 10 9 10 8 4 6 6 5 5 3 3 7 8 7 7 10 14 16 21 26 29 31 33 34 37 41 44 45 45 46 46 47 47 48 50 53 55 55 55 55 58 60 59 58 57 54 51 49 47 44 41 39 38 37 35 34 34 34 36 40 41 38 38 45
2 0 6 9 11 12 9 5 2 2 4 4 4 9 10 10 13 9 4 7 9 7 9 11 10 11 11 8 6 5 4 5 3 6 7 6 8 11 13 16 22 27 29 31 32 35 40 43 44 45 45 45 46 46 46 48 50 51 53 55 56 57 58 59 59 59 59 57 52 50 49 46 43 40 38 37 36 35 35 35 36 40 42 39 37 39
3 3 9 13 17 17 11 6 3 4 6 7 5 8 11 11 13 12 12 13 6 3 12 13 9 12 14 9 7 6 4 4 2 5 5 6 9 11 13 18 24 27 29 30 31 36 41 44 44 45 45 45 46 47 48 50 51 51 53 55 56 58 59 58 59 60 61 59 55 52 51 48 45 42 39 37 37 37 36 36 36 39 41 40 38 36
2 6 8 10 16 17 13 10 7 6 7 9 8 9 11 13 14 15 18 16 9 9 16 14 11 15 13 8 8 7 4 2 3 4 3 7 10 12 15 20 24 26 28 29 33 37 40 42 44 45 45 45 46 48 50 52 53 54 55 55 56 57 58 58 61 63 61 59 56 54 52 49 46 45 42 39 38 38 38 37 38 39 38 37 36 34
2 4 5 8 13 15 12 11 10 9 9 10 11 11 12 15 16 17 18 16 15 18 20 17 18 20 14 9 11 11 7 1 4 1 4 8 10 12 16 20 23 25 27 30 35 38 39 41 43 44 44 45 47 48 50 52 54 55 56 56 56 57 58 59 61 64 63 60 56 54 54 51 47 44 42 40 39 40 41 40 40 41 37 34 34 32
4 3 2 4 9 11 10 9 10 10 11 14 14 13 14 16 18 18 17 14 15 19 21 19 19 20 14 9 11 12 7 3 3 1 4 7 9 11 16 21 22 23 28 33 36 37 39 41 43 45 44 45 47 48 49 52 53 55 56 56 55 57 59 61 61 62 63 61 57 54 54 54 50 45 42 41 41 43 43 41 41 42 37 33 32 31
5 3 2 3 5 7 5 7 8 7 9 16 19 18 17 17 18 17 15 13 15 18 20 17 15 15 10 6 7 7 4 3 3 1 3 5 8 11 16 19 21 24 29 34 35 35 38 41 44 45 45 45 48 48 49 51 52 54 55 55 55 56 60 63 62 61 61 61 60 58 54 52 50 47 45 43 41 41 43 42 41 41 38 34 32 31
5 4 1 3 4 3 1 3 2 2 6 13 15 16 19 21 20 17 14 16 19 17 14 12 12 12 7 4 6 5 3 3 3 1 2 6 10 14 15 15 19 25 31 33 33 33 36 40 42 44 44 45 47 48 48 48 49 51 53 54 56 58 60 61 60 59 59 58 57 57 54 52 50 48 46 44 42 41 42 41 40 40 39 36 33 31
7 6 3 4 3 1 2 4 2 2 9 9 4 9 17 21 21 19 18 19 18 15 12 11 11 10 6 6 7 4 3 4 2 2 4 8 13 16 14 14 19 26 30 32 32 33 35 39 41 43 44 44 46 46 47 47 48 50 52 54 57 59 61 63 62 62 61 57 54 53 53 52 51 50 48 46 44 43 42 41 40 40 39 36 32 31
9 7 4 3 2 1 2 3 1 7 8 4 1 3 9 13 16 17 17 17 15 13 13 14 13 10 9 8 6 4 4 4 1 7 9 12 14 11 10 16 22 25 28 29 31 33 35 38 41 43 44 45 45 46 47 47 49 51 53 55 57 59 60 60 60 60 59 58 56 53 52 54 55 55 54 51 48 44 42 41 41 39 38 34 31 30
9 7 4 3 2 1 2 4 6 6 7 6 5 3 1 3 7 10 12 13 12 12 13 13 13 10 8 6 4 6 5 3 4 11 13 10 8 6 11 21 25 24 26 27 29 32 35 36 39 42 44 44 45 45 47 48 49 51 53 55 57 59 59 60 62 62 59 57 58 56 53 52 53 54 54 52 50 47 43 41 39 37 34 32 29 28
8 7 4 3 3 3 3 7 7 9 14 13 9 7 7 7 7 6 9 10 9 10 11 11 10 8 6 5 7 7 4 5 6 9 6 3 6 7 16 22 23 24 25 27 28 30 33 35 37 39 42 43 43 44 46 48 49 51 53 55 58 60 62 64 66 65 61 60 61 60 56 52 50 48 47 46 46 46 43 40 37 35 32 30 28 26
7 7 6 4 4 3 3 5 5 7 11 8 2 6 12 12 8 4 5 7 7 11 14 11 9 8 5 8 9 8 5 4 4 2 6 6 5 13 19 21 22 24 26 27 28 30 32 35 37 39 40 41 42 43 45 47 49 50 52 55 58 59 61 64 65 66 66 66 65 62 58 54 53 52 50 47 43 41 39 37 34 32 30 28 26 25
7 6 4 4 4 4 4 5 6 8 10 2 3 2 9 15 12 6 4 7 6 14 18 13 8 7 7 9 8 7 6 0 3 6 8 5 13 17 19 20 21 23 24 25 27 30 33 36 38 39 40 41 42 43 45 47 49 50 51 55 57 59 61 64 66 66 66 66 64 61 56 53 52 50 48 45 41 37 36 34 32 30 27 25 24 24
7 5 4 6 7 7 7 7 6 9 7 4 6 4 11 17 14 7 4 7 3 11 18 16 10 10 12 11 10 7 5 6 5 6 8 11 16 16 17 18 20 22 24 25 27 31 34 36 38 39 40 41 42 44 45 47 49 50 51 54 57 60 62 64 65 65 65 64 63 61 56 50 47 45 42 39 35 34 33 32 30 29 26 22 20 20
4 4 5 8 9 9 10 8 6 8 5 7 9 11 16 16 8 2 5 5 5 9 17 19 17 16 16 15 12 9 11 12 9 7 11 14 15 14 15 17 19 21 23 25 28 31 34 36 38 39 39 39 41 43 45 47 49 51 52 54 56 59 61 63 65 65 65 64 62 60 56 48 43 41 39 35 33 34 33 31 29 28 24 20 17 17
5 4 5 7 6 7 9 6 7 10 7 13 16 18 19 11 2 6 6 10 15 16 18 21 20 18 18 18 17 16 16 14 11 11 12 12 12 13 14 16 18 21 23 26 29 31 34 37 38 40 41 40 41 43 44 46 49 50 52 54 55 58 60 62 64 64 64 63 62 60 56 46 41 42 41 36 33 34 34 30 29 28 26 22 20 19
8 6 5 7 6 4 5 6 6 9 8 22 21 12 9 7 5 4 8 13 19 22 22 22 20 18 19 19 18 18 16 13 12 12 11 11 11 12 13 16 18 21 24 26 29 31 34 37 39 41 42 42 42 43 44 46 48 50 52 53 55 57 59 61 63 64 64 62 60 59 53 45 42 43 42 37 33 32 32 28 26 27 27 25 25 24
8 8 5 6 7 7 7 10 7 3 9 28 23 9 12 20 15 9 10 12 16 22 23 22 20 19 18 17 17 18 17 14 12 11 9 10 10 11 13 15 18 21 24 26 28 31 34 37 39 41 41 41 42 43 43 44 47 49 51 53 55 56 58 60 62 63 63 61 59 58 53 47 44 42 41 37 32 28 27 24 22 22 23 24 25 26
12 12 5 4 9 9 7 8 6 4 15 30 27 16 21 29 25 17 14 14 19 23 21 20 21 19 17 16 17 16 14 12 10 9 9 8 9 10 12 15 17 19 23 25 27 30 32 35 38 41 42 41 41 42 42 42 45 48 50 51 54 56 58 60 61 62 62 60 58 56 51 46 44 42 40 37 33 28 24 22 20 20 22 24 26 28
9 9 3 1 6 8 8 5 6 8 16 29 30 21 19 24 25 22 19 17 21 23 21 19 18 16 15 16 16 13 11 10 9 9 8 7 8 10 12 14 15 18 21 23 26 29 31 34 37 39 42 42 41 41 42 41 42 46 48 50 52 54 56 58 60 61 60 58 56 54 50 46 44 42 41 38 35 31 26 22 20 20 22 24 27 28
6 10 7 3 6 7 7 6 10 12 17 26 29 22 16 15 19 21 22 21 21 21 19 16 13 12 14 15 13 10 10 10 9 8 8 7 7 9 11 13 15 17 19 22 25 27 30 33 36 38 41 42 42 42 42 42 42 44 46 48 50 52 54 56 57 59 58 55 54 52 48 45 43 42 42 41 39 34 30 25 21 21 22 25 27 29
8 13 10 9 10 8 4 3 10 16 20 24 27 26 21 19 19 20 21 22 21 18 16 14 12 12 13 13 11 9 10 10 9 8 7 7 7 8 10 12 14 16 18 20 23 26 29 32 34 36 39 41 41 42 42 42 42 43 45 47 49 51 53 54 55 56 54 52 51 50 47 44 41 39 40 42 41 37 33 29 25 23 23 22 23 27
13 14 10 8 10 9 6 3 7 7 9 16 24 28 27 27 25 22 21 20 19 17 15 13 13 13 13 12 11 10 10 10 8 7 7 6 6 8 9 11 13 15 17 20 22 25 27 30 32 34 36 38 39 40 41 42 42 43 44 46 48 50 51 52 53 53 52 50 48 47 45 42 39 38 39 42 42 39 33 29 26 24 23 18 14 20
14 11 8 8 9 11 10 10 11 5 4 11 22 28 28 27 25 23 22 20 19 17 16 15 14 14 14 13 11 10 10 10 8 7 7 6 6 7 9 11 13 15 17 19 21 24 26 28 30 33 35 36 38 39 40 41 41 42 43 45 47 48 49 50 51 50 49 47 45 44 43 42 40 39 39 40 41 40 36 29 22 19 20 19 13 12
14 13 12 10 10 11 10 15 19 14 8 11 20 24 26 25 24 22 21 19 18 17 16 16 16 15 15 14 12 11 11 10 8 8 7 7 7 7 9 11 13 15 17 19 22 24 26 28 30 32 33 35 36 37 38 39 40 41 42 43 45 45 46 47 48 48 47 45 43 41 40 40 40 40 41 40 40 41 40 36 26 17 14 15 13 10
Wind_Direction
3 341 288 277 38 60 46 7 310 302 289 283 282 263 259 266 263 274 291 133 116 31 286 296 289 274 259 182 162 158 150 141 143 144 142 135 121 103 84 65 35 22 9 7 6 359 355 353 355 355 353 348 343 341 338 336 334 330 329 330 329 328 326 324 322 320 318 314 312 309 308 306 305 305 305 305 306 307 307 308 308 307 305 304 304 303
34 310 292 51 50 48 42 313 271 268 259 263 256 256 258 255 265 293 324 117 107 78 270 279 269 266 269 187 154 156 153 152 153 145 139 134 124 109 94 77 34 19 6 4 360 352 353 356 359 358 353 347 341 339 337 335 332 330 330 329 328 327 326 324 323 321 318 314 311 308 306 305 304 303 303 301 301 303 304 305 305 303 303 304 305 307
337 265 158 74 66 15 108 207 236 242 248 260 247 253 257 254 303 318 360 79 20 358 271 271 263 269 276 169 153 161 154 144 145 138 132 129 121 107 88 68 31 12 1 358 351 347 353 358 359 357 352 346 340 337 336 334 331 330 329 328 329 329 327 324 322 321 318 315 311 306 303 302 302 301 299 297 298 299 299 301 302 300 300 303 305 307
297 265 142 102 91 45 276 221 230 241 243 246 246 259 260 320 31 291 310 352 325 298 269 276 271 271 270 145 150 153 138 131 134 135 134 131 119 110 93 58 29 10 360 353 343 344 352 356 358 356 350 344 339 337 335 333 331 330 328 327 328 328 326 324 323 321 318 315 312 307 303 300 299 298 297 296 295 295 295 295 298 297 297 301 304 305
267 277 87 157 137 91 290 270 256 252 264 263 271 277 256 16 19 261 297 317 304 284 270 292 286 258 177 157 162 137 134 140 147 149 145 138 126 112 86 52 27 9 358 345 337 344 350 353 355 353 347 341 338 336 333 331 331 330 328 325 324 325 324 323 323 321 318 316 314 310 306 303 299 297 296 295 293 293 292 292 293 293 294 297 301 303
264 272 47 218 201 211 260 273 257 184 262 278 282 106 140 298 293 282 292 306 309 280 249 27 315 279 160 164 169 140 152 162 161 161 150 142 137 109 70 43 22 3 350 338 337 345 349 353 353 348 342 338 336 333 331 330 330 329 326 324 323 323 320 318 320 322 318 314 312 310 307 304 301 298 295 293 293 292 291 290 290 290 291 293 296 298
236 153 81 199 235 291 261 266 261 116 78 271 218 146 40 281 267 270 278 294 281 255 262 55 293 279 201 180 174 164 175 172 167 161 144 149 142 91 66 38 13 352 341 337 341 346 351 355 351 343 339 337 334 332 330 328 327 326 324 323 323 320 317 317 319 321 318 311 309 308 306 303 300 297 294 292 292 290 290 289 287 287 289 291 292 294
179 141 131 211 215 252 262 260 249 91 75 238 207 197 283 264 257 259 259 249 240 264 276 226 226 259 266 222 174 166 169 174 174 160 148 152 124 76 59 28 2 344 337 339 344 350 354 353 346 339 336 334 332 331 330 328 327 326 324 323 323 320 317 317 319 320 318 312 308 308 307 304 301 297 294 292 290 289 288 287 286 286 287 289 290 291
149 155 194 205 201 226 234 201 183 111 134 210 204 223 246 248 250 252 248 245 252 277 274 225 208 255 268 210 148 160 170 183 178 162 156 140 103 68 47 17 351 341 338 342 350 354 353 346 339 336 333 333 334 332 330 329 327 324 322 323 323 321 318 319 321 320 314 307 303 302 302 301 299 296 294 293 290 287 286 286 286 285 284 286 288 289
134 149 179 155 180 223 187 157 161 151 190 279 328 282 260 246 247 246 238 245 258 263 266 247 208 230 265 160 149 172 186 190 178 156 143 126 98 54 37 7 345 345 345 349 354 353 347 340 335 332 330 332 332 330 329 328 326 323 321 323 324 323 320 319 319 315 308 305 302 301 303 302 297 293 292 293 292 287 284 285 285 284 284 283 285 288
163 125 159 179 206 186 129 144 168 190 242 352 343 289 275 259 248 234 221 229 267 255 263 274 225 223 261 197 166 186 183 161 157 144 128 118 85 47 25 0 353 353 351 353 352 347 341 335 333 331 329 330 330 329 330 329 328 325 321 322 324 323 320 318 316 313 312 310 306 307 308 307 302 297 293 291 293 291 285 284 284 284 283 282 283 285
188 179 209 207 212 114 96 171 200 200 234 38 328 296 316 295 256 241 243 111 235 245 247 15 9 284 243 234 154 158 128 119 134 138 130 115 68 39 14 4 1 357 354 353 347 342 338 334 331 331 329 330 330 329 330 329 329 328 323 322 323 321 321 321 318 317 316 311 307 310 311 306 302 303 301 292 289 293 292 285 284 284 281 281 283 282
225 223 168 90 110 152 127 33 208 230 263 182 242 296 316 321 304 276 319 142 233 245 183 96 42 317 241 248 187 157 132 112 123 119 113 98 53 30 14 7 0 356 353 349 344 339 336 333 330 330 329 329 329 329 330 329 329 329 327 324 321 320 322 323 320 319 319 313 308 311 310 305 300 300 305 299 285 287 295 292 288 286 281 279 280 279
283 304 125 103 352 179 171 156 185 243 214 203 210 171 192 299 316 275 255 239 249 243 191 139 41 295 260 262 192 149 131 120 119 110 99 80 51 30 16 7 358 356 352 345 340 336 333 331 328 328 328 328 328 329 330 328 328 330 329 326 323 321 323 325 323 322 322 316 311 310 305 302 300 299 305 306 291 283 286 290 292 290 284 280 278 278
270 303 203 176 189 171 180 174 158 147 177 214 170 129 170 173 225 255 246 233 266 272 242 149 9 260 249 280 130 125 126 124 120 113 95 71 50 32 17 9 360 354 348 341 336 333 331 328 327 328 328 327 327 328 328 327 328 328 326 326 325 322 323 326 325 322 319 313 308 307 303 302 304 303 302 303 298 289 284 283 289 293 290 282 277 278
226 256 259 319 144 148 172 81 105 95 309 254 108 102 214 194 205 257 257 185 274 300 273 180 214 229 174 105 123 125 132 131 124 109 84 56 33 27 16 5 357 349 344 339 334 332 330 327 327 327 326 326 327 327 326 326 328 328 325 325 326 325 323 323 324 322 318 312 308 308 306 304 304 300 294 293 293 292 288 284 285 290 292 286 278 277
241 261 293 17 31 73 42 25 39 222 185 241 84 167 234 188 137 282 296 18 59 303 273 190 247 261 115 124 152 146 154 144 125 98 76 47 26 26 13 359 353 347 342 337 333 330 328 326 326 327 327 326 326 326 325 325 326 327 326 325 326 326 324 321 321 322 319 315 313 313 311 307 304 302 299 296 294 290 286 282 278 284 294 290 281 277
265 269 251 172 297 67 71 358 310 238 142 128 195 210 210 57 82 119 306 1 19 274 260 177 222 242 207 219 184 167 173 149 116 98 83 50 32 20 3 359 351 343 338 333 332 329 326 325 324 326 325 324 325 324 322 323 324 326 326 325 326 327 324 320 322 323 321 317 312 310 310 308 306 306 304 302 300 295 288 281 274 280 297 300 287 278
53 261 261 248 256 181 72 9 283 214 136 133 219 237 99 118 205 144 149 219 243 267 270 236 236 231 218 209 175 177 180 140 99 86 79 47 33 13 360 357 347 341 337 333 332 329 327 324 324 325 325 323 324 322 321 322 323 326 326 323 324 327 325 323 324 325 322 318 312 308 308 308 308 306 303 303 304 301 295 287 280 278 289 303 301 288
73 237 257 297 273 258 76 181 202 201 139 89 360 323 104 167 196 171 163 186 227 261 277 280 273 241 220 195 157 161 152 126 103 62 65 39 29 13 359 353 345 340 335 332 330 327 325 324 323 326 326 325 324 323 323 322 322 326 327 323 324 328 329 327 326 326 324 320 315 313 312 310 309 307 303 302 305 305 301 294 289 284 283 287 294 297
95 223 241 308 317 261 176 197 193 191 180 152 169 211 203 182 165 199 228 167 209 250 260 279 280 249 221 207 128 131 129 131 135 130 155 120 45 15 356 351 345 338 333 331 329 327 325 324 324 326 326 326 326 325 324 323 323 328 329 325 325 328 329 329 326 326 326 323 317 316 315 310 311 311 304 301 304 305 304 299 293 290 283 279 280 283
157 216 231 240 245 226 223 217 187 180 177 182 193 196 199 190 154 215 250 198 192 236 221 251 272 258 200 198 119 121 129 133 128 137 153 89 51 12 353 349 341 336 333 330 328 327 326 324 323 324 327 328 328 327 326 324 325 328 328 326 325 325 327 328 326 325 326 324 318 315 314 310 311 313 307 302 304 302 303 302 295 291 285 278 276 275
101 73 253 256 250 243 267 335 124 194 205 221 228 203 189 185 166 199 238 225 190 235 217 240 271 271 180 149 127 126 142 146 126 87 90 70 39 3 350 345 339 335 332 330 329 327 326 323 322 324 327 328 328 327 327 325 325 326 326 325 324 324 325 326 326 325 324 323 317 314 314 310 308 310 307 304 305 302 301 301 296 293 290 282 276 274
81 72 249 278 300 320 307 322 344 298 326 251 239 203 185 198 188 204 231 210 161 231 211 219 258 261 235 138 135 143 163 162 125 72 78 65 22 356 348 343 338 335 332 330 329 328 326 323 323 325 327 327 327 328 327 326 325 325 323 323 325 325 324 324 325 325 325 323 319 315 313 311 308 307 304 301 302 301 299 299 299 296 293 287 277 271
168 148 134 296 303 288 286 294 268 229 193 229 228 192 203 219 210 252 251 116 251 240 220 224 249 248 222 172 158 159 180 178 100 72 75 53 11 353 347 342 337 334 331 330 329 328 326 324 324 326 327 327 327 327 327 326 325 324 322 322 324 323 322 323 324 324 325 324 320 316 313 309 308 305 302 298 297 299 297 296 298 296 293 289 280 272
179 165 156 198 266 264 270 279 248 207 191 225 225 201 211 216 214 230 222 197 239 240 222 225 246 249 216 191 185 186 220 265 31 62 61 33 359 348 345 339 335 333 330 329 328 326 325 324 325 328 329 328 327 326 327 326 324 323 322 322 322 321 320 323 324 323 324 323 319 316 313 310 308 304 301 299 295 296 297 294 294 295 292 290 283 274
125 289 206 218 242 250 264 276 231 160 177 200 204 202 210 215 215 215 211 220 235 253 246 233 240 261 257 242 252 271 284 302 353 60 48 12 346 343 341 335 333 331 329 327 326 324 324 325 326 328 328 327 326 326 326 325 324 323 322 323 323 322 321 323 324 324 324 324 319 315 313 311 308 304 299 297 295 293 294 293 292 293 292 290 285 275
108 249 220 226 242 250 264 270 204 173 203 215 206 199 207 215 213 209 218 228 230 271 259 245 233 252 257 257 265 267 285 308 24 75 41 350 337 336 335 333 331 329 326 325 323 323 324 324 325 328 327 326 325 326 326 326 325 324 323 323 323 322 323 323 323 323 324 323 319 315 314 312 309 305 299 295 293 292 292 292 290 292 290 287 283 276
132 249 221 223 246 253 259 259 236 216 226 229 217 207 215 221 218 219 228 233 230 239 254 260 252 250 256 263 263 267 294 322 92 89 356 334 337 335 333 331 328 325 323 323 322 322 323 323 326 327 327 326 326 327 327 327 327 327 325 325 324 322 323 323 322 323 324 323 319 316 315 313 308 306 303 297 292 291 291 291 292 296 293 284 280 276
152 251 222 222 253 257 252 256 256 254 258 253 238 225 229 234 231 232 235 234 232 242 254 263 264 263 264 262 269 284 292 195 122 75 337 339 335 331 330 326 322 321 321 321 321 322 322 323 326 327 326 326 327 327 327 327 327 328 326 326 326 324 324 325 323 323 323 323 321 319 317 316 312 309 305 298 293 294 296 294 297 301 297 286 279 275
198 228 162 193 257 262 242 243 258 261 264 265 257 242 239 246 246 242 240 234 233 245 252 255 263 268 264 257 270 277 262 164 121 360 339 337 325 323 324 321 319 317 318 320 320 320 323 325 328 328 326 326 327 327 327 327 327 329 328 327 326 325 326 327 326 325 324 324 325 323 319 317 316 313 309 302 295 295 298 298 298 301 297 288 281 276
205 222 88 140 248 261 220 216 245 267 280 272 263 247 235 240 243 238 235 229 227 239 249 250 256 261 260 261 258 244 209 144 115 65 336 314 310 318 320 316 314 313 316 319 319 321 325 328 328 327 325 326 328 328 328 328 328 329 329 327 326 327 328 330 330 328 324 321 322 323 320 318 314 311 310 308 301 296 298 298 297 299 297 289 283 279
184 197 160 164 227 273 118 156 205 345 302 272 254 231 222 229 237 239 238 233 227 231 241 243 245 252 260 257 236 220 169 130 115 78 311 303 310 317 316 308 305 310 315 317 319 323 326 327 327 325 324 326 328 327 327 327 327 327 328 328 328 330 331 330 330 329 325 323 321 319 320 320 316 311 308 308 305 302 301 298 294 295 295 287 280 276
189 197 190 179 201 221 123 111 82 277 264 263 233 194 207 218 226 231 235 235 230 228 235 243 247 250 246 230 226 218 164 131 96 303 287 314 318 313 307 302 305 313 317 320 323 326 326 325 325 325 325 327 328 328 328 328 329 329 330 331 332 333 335 334 334 332 329 326 322 319 318 318 316 313 312 312 312 309 305 299 295 295 294 288 278 270
185 193 192 190 197 183 129 105 208 247 252 271 4 197 208 211 218 228 240 240 232 228 235 243 244 235 228 229 213 153 118 102 341 293 304 319 312 297 295 308 316 319 321 324 326 326 326 326 327 327 327 329 331 331 331 332 334 334 334 336 337 337 337 335 332 330 327 325 323 321 319 317 314 313 314 316 318 316 311 306 302 299 296 290 278 267
175 185 186 176 179 178 147 184 217 269 304 286 251 230 158 194 208 227 250 246 227 225 231 234 238 233 225 223 160 108 87 56 318 306 316 311 276 274 311 320 324 324 323 326 326 325 326 327 328 328 329 333 335 335 334 335 336 336 336 338 339 339 338 335 333 333 332 328 325 323 322 321 317 313 312 315 318 318 316 314 309 305 301 293 279 265
171 178 178 183 197 179 195 220 238 311 310 279 239 191 184 199 190 201 249 245 208 211 226 225 233 235 205 158 117 100 76 33 351 321 309 218 222 300 323 324 327 327 327 329 326 325 327 327 328 331 333 336 338 337 337 337 337 337 338 340 342 341 339 338 337 335 334 332 330 329 329 329 327 323 321 321 319 317 317 317 314 309 304 295 279 265
183 190 179 193 212 150 164 245 258 283 278 267 217 182 191 189 163 142 267 257 191 201 219 218 221 223 172 130 119 104 84 37 347 242 179 182 278 312 320 324 329 330 331 331 328 328 330 330 331 335 337 340 340 339 338 338 338 338 339 341 342 341 340 339 336 335 336 337 336 334 331 329 328 327 326 325 323 320 318 317 315 311 304 294 278 263
195 211 196 215 232 170 178 232 234 244 251 218 92 124 150 145 130 88 317 271 207 198 205 201 199 193 153 145 152 125 103 148 250 194 183 248 297 307 317 326 330 330 332 333 331 331 332 333 334 338 341 343 342 341 340 339 339 340 341 342 343 342 342 340 337 337 337 337 337 335 332 330 328 327 325 324 324 322 320 320 319 315 307 295 279 263
192 199 196 218 225 205 207 229 237 252 254 136 122 127 123 127 121 87 304 267 209 181 189 184 174 168 161 165 164 143 160 210 215 196 220 273 295 305 320 327 328 330 334 335 335 334 334 335 336 339 344 347 344 343 343 340 341 342 343 344 344 343 341 340 338 338 337 338 338 336 335 335 332 329 329 328 326 325 325 325 324 319 311 299 280 265
196 194 201 217 223 213 214 228 252 261 235 145 143 142 125 116 117 169 242 226 149 160 179 177 171 170 176 180 175 183 213 219 217 230 254 278 296 310 322 326 330 335 337 337 337 337 336 337 337 340 346 349 347 346 345 343 343 344 345 346 344 342 341 340 339 339 339 339 339 336 336 338 336 334 335 332 328 329 330 329 326 319 311 301 286 273
187 193 213 218 211 211 218 229 268 273 219 157 154 151 137 125 210 230 188 154 154 162 168 171 174 180 189 194 195 205 217 219 230 254 269 281 297 316 325 329 335 339 340 339 340 339 338 339 339 342 347 351 350 349 349 346 345 346 346 346 344 342 342 342 340 340 340 340 340 338 337 341 342 340 337 332 329 330 330 329 327 322 315 308 300 291
175 168 208 212 181 182 220 213 241 269 194 153 148 146 155 183 221 178 148 159 170 171 169 174 180 186 193 200 204 209 214 221 240 259 270 278 296 319 329 335 340 341 342 343 342 341 340 340 341 343 347 351 352 352 352 349 347 347 346 346 345 343 343 343 342 341 342 341 340 338 338 343 347 341 334 330 328 325 325 327 325 321 318 315 309 302
182 176 200 208 172 161 201 205 212 276 159 156 158 170 200 208 211 180 162 175 179 177 178 182 186 190 196 202 204 207 214 228 245 258 264 277 303 324 333 340 343 342 343 345 343 342 342 342 343 344 347 351 353 353 353 351 348 347 347 346 345 344 344 345 344 342 342 342 341 339 341 346 346 337 331 333 332 324 322 325 321 313 312 313 308 299
202 192 182 192 185 185 216 217 188 132 157 171 181 192 197 207 216 209 195 192 186 186 187 186 187 191 197 201 201 205 219 234 247 258 268 289 315 328 335 343 343 342 345 345 343 343 343 343 344 344 345 350 353 353 354 353 350 348 347 346 346 346 346 346 344 343 344 344 342 340 342 345 342 336 335 338 339 334 327 324 320 313 310 310 306 296
209 191 151 127 196 216 249 229 148 136 167 183 194 202 201 208 215 214 213 209 197 194 193 189 190 192 196 200 203 209 228 241 247 260 276 299 318 327 336 341 341 343 345 344 343 344 344 344 344 343 344 348 352 353 354 354 351 348 347 347 347 347 347 346 344 344 345 345 343 342 344 345 342 340 341 343 346 345 337 329 323 318 314 310 306 300
203 186 186 195 183 195 234 209 161 170 187 189 196 206 209 213 217 219 223 220 206 199 198 198 199 198 197 202 206 217 235 243 245 259 278 296 312 326 335 337 340 344 344 343 344 345 345 345 345 344 344 346 350 353 354 354 352 349 348 348 349 348 348 347 346 346 347 347 345 345 347 347 345 344 345 348 352 351 345 341 334 326 323 320 314 310
177 171 186 214 202 193 235 207 167 186 197 195 199 209 217 222 225 226 225 220 210 203 202 205 210 208 203 206 212 224 235 237 240 257 274 288 308 326 331 333 340 344 342 344 346 346 345 345 345 345 345 346 349 352 353 353 352 350 350 350 350 350 349 349 348 348 348 349 348 348 350 351 351 350 349 350 353 353 351 350 345 335 329 326 325 327
150 162 177 198 204 218 241 194 149 177 207 199 201 212 223 229 230 225 218 213 208 207 209 213 219 219 214 213 220 231 234 232 239 259 269 281 307 324 328 332 339 341 342 346 348 347 346 345 344 345 345 346 349 352 353 353 352 352 352 352 351 351 351 351 351 351 351 351 350 350 351 353 355 356 353 349 350 352 353 354 353 346 337 332 337 345
152 177 180 165 191 224 228 196 177 189 226 201 203 214 224 229 228 221 214 214 218 223 225 224 222 220 216 218 227 236 233 230 242 258 265 281 308 322 325 330 336 340 344 348 347 346 346 345 345 346 346 347 350 352 353 352 352 353 354 353 353 354 353 353 354 354 353 353 353 352 353 354 357 359 356 351 351 353 353 354 360 2 352 344 342 347
178 184 173 174 205 226 216 199 202 211 224 213 212 218 223 225 224 219 219 224 229 233 235 234 229 223 220 223 234 239 235 235 244 254 266 284 304 317 323 327 333 341 347 348 346 346 346 346 347 347 347 348 350 352 353 353 352 354 355 355 356 356 356 356 357 356 355 355 355 354 355 355 357 359 358 355 355 357 355 353 356 7 9 357 347 344